Location: Marsån
(66.4167°N, 22.2833°E)
Time: 10:44:36
(UTC+00:00)

Cosmos 676 Rocket - Pass Details

Date: 24 February 2024
Orbit: 752 x 782 km, 74.0° (Epoch: 15 April)

Event Time Altitude Azimuth Distance (km) Brightness Sun altitude
Rises 18:42:37 0° 240° (WSW) 3,208 7.7 -20.2°
Reaches altitude 10° 18:45:01 10° 244° (WSW) 2,284 7.0 -20.4°
Maximum altitude 18:50:08 60° 324° (NW) 865 4.5 -20.9°
Drops below altitude 10° 18:55:17 10° 45° (NE) 2,294 6.3 -21.3°
Enters shadow 18:55:37 - 46° (NE) 2,422 6.4 -21.4°
